Showing default

TANSAT, 41898

Orbit data source: Space-Track

TANSAT, 41898 is a Chinese payload satellite in SSO that was launched on Wed, 21 Dec 2016 UTC via a CHANG ZHENG 2D launch vehicle from the Jiuquan Satellite Launch Center, China (JSC). Payloads include a variety of satellites, spacecraft, and rockets equipped with specific instruments for various scientific and technological missions. These include communications satellites like Starlink; space stations such as the ISS; scientific satellites like the Hubble; Earth observation satellites from companies like Planet Labs, Umbra, and HawkEye 360; GPS; miniature CubeSats for education and research; and military/defense satellites.

Loading next visibility...
TANSAT details
Identifier
41898, 2016-081A
Orbit
SSO
Last TLE update10 hours ago
Origin
Flag of CNSECM/NSMC (CN / PRC)
ManufacturerSECM
MissionOperational Civil Science
Bus & MotorTANSAT, Unknown motor
Mass~620 kg wet, ~600 kg dry
Launch date (UTC)
2016-12-21 (8 years ago)
Launch vehicle
CHANG ZHENG 2D
Launch site
Jiuquan Satellite Launch Center, China (JSC)
Object type
Payload
Rocket body
Debris
Shape & HBRBox + 2 Pan, 10 m
Radar Cross Section7.261 m², Large (>1 m²)

Expand to show TLE details & history

TLE from 10 hours ago
0 TANSAT
1 41898U 16081A   24361.06290117  .00001225  00000-0  26986-3 0  9992
2 41898  98.4946 335.8524 0020783 168.2352 191.9336 14.59162680426128
Epoch: 2024-12-26T01:30Z
Definitive object data (Epoch: 2024-12-26T01:30:34.661Z)
Latitude-0.00005°
Longitude-141.8397°
Altitude713.242 km
Speed7.491 km/s
True Right ascension22h 23m 24s
True Declination0° 00' 00"
Sunlit
Object was in daylight at TLE epoch
Visualization TLE readout
Latitude60.16072°
Longitude53.61338°
Altitude696.258 km
Speed7.519 km/s
Apparent Right ascension22h 56m 10s
Apparent Declination55° 58' 55"
Sunlit
Object is in full shadow
Visualization observer readout
Local Sidereal Time11:17:04
Azimuth2.935° NNE
Elevation6.001°
Doppler factor1
Orbital elements
Apogee altitude707.671 km
Perigee altitude678.279 km
Semi-major axis7,071.112 km
Eccentricity0.0020783
Inclination98.4946°
RAAN335.8524°
Arg. of periapsis168.2352°
True anomaly191.88448°
Mean anomaly191.9336°
Eccentric anomaly191.90903°
Mean motion3.65016 °/min
BSTAR0.00026986
Orbital period98.63 mins
Loading maneuver chart data...
Loading historical data...
Loading historical data...
Loading historical data...
Loading historical data...
Loading historical data...
Loading historical data...
Loading historical data...
Other satellites on launch #81 in the year 2016 (2016-12-21 UTC)

TANSAT Visibility forecast

Observer location: undefined°, undefined

Span
Click to sort rows by Start time (UTC) header in descending order
Start Az.
Max El. time (UTC)
Max El. Az.
Max El.
End time (UTC)
End Az.
8 mins2024-12-26 11:56:38.297Z359.668° N2024-12-26 12:00:38.297Z298.486° NW35.019°2024-12-26 12:04:38.297Z219.636° SW
5 mins2024-12-26 21:25:38.297Z97.916° ESE2024-12-26 21:27:38.297Z67.712° E18.505°2024-12-26 21:30:38.297Z24.409° NE
7 mins2024-12-26 23:01:38.297Z194.225° SSW2024-12-26 23:04:38.297Z245.976° WSW34.186°2024-12-26 23:08:38.297Z328.412° NNW
7 mins2024-12-27 11:00:38.297Z31.958° NE2024-12-27 11:03:38.297Z84.305° E34.446°2024-12-27 11:07:38.297Z168.308° S
|